• In Czech Republic
  • List of Countries
  • For 7 days
  • Water Temperature
  • Satellite Maps
  • Weather Map
  • Weather Widgets
  • user-avatar
    Login

    Hourly Weather Calgari

    Today, 26 September, Wednesday

    Time Temperature Precipitation Wind Pressure Humidity
    00:00 +21°C° 0 mm 7 mps 766 mmHg 65%
    01:00 +21°C° 0 mm 7 mps 767 mmHg 64%
    02:00 +21°C° 0 mm 7 mps 767 mmHg 64%
    03:00 +21°C° 0 mm 8 mps 767 mmHg 65%
    04:00 +21°C° 0 mm 8 mps 767 mmHg 66%
    05:00 +21°C° 0 mm 8 mps 767 mmHg 66%
    06:00 +21°C° 0 mm 8 mps 768 mmHg 66%
    07:00 +21°C° 0 mm 8 mps 768 mmHg 66%
    08:00 +22°C° 0 mm 9 mps 768 mmHg 62%
    09:00 +23°C° 0 mm 9 mps 769 mmHg 58%
    10:00 +26°C° 0 mm 9 mps 769 mmHg 53%
    11:00 +26°C° 0 mm 9 mps 769 mmHg 51%
    12:00 +27°C° 0 mm 9 mps 770 mmHg 48%
    13:00 +28°C° 0 mm 9 mps 770 mmHg 45%
    14:00 +27°C° 0 mm 9 mps 770 mmHg 43%
    15:00 +27°C° 0 mm 8 mps 769 mmHg 41%
    16:00 +26°C° 0 mm 8 mps 769 mmHg 39%
    17:00 +24°C° 0 mm 8 mps 769 mmHg 44%
    18:00 +22°C° 0 mm 7 mps 770 mmHg 48%
    19:00 +21°C° 0 mm 7 mps 770 mmHg 53%
    20:00 +20°C° 0 mm 6 mps 770 mmHg 57%
    21:00 +20°C° 0 mm 6 mps 770 mmHg 60%
    22:00 +19°C° 0 mm 6 mps 771 mmHg 64%
    23:00 +19°C° 0 mm 6 mps 770 mmHg 65%

    Tomorrow, 27 September, Thursday

    Time Temperature Precipitation Wind Pressure Humidity
    00:00 +19°C° 0 mm 6 mps 770 mmHg 66%
    01:00 +17°C° 0 mm 6 mps 770 mmHg 68%
    02:00 +17°C° 0 mm 5 mps 770 mmHg 68%
    03:00 +17°C° 0 mm 5 mps 770 mmHg 69%
    04:00 +17°C° 0 mm 5 mps 770 mmHg 69%
    05:00 +17°C° 0 mm 5 mps 770 mmHg 69%
    06:00 +17°C° 0 mm 5 mps 770 mmHg 69%
    07:00 +18°C° 0 mm 4 mps 770 mmHg 69%
    08:00 +20°C° 0 mm 4 mps 770 mmHg 61%
    09:00 +22°C° 0 mm 4 mps 770 mmHg 53%
    10:00 +25°C° 0 mm 3 mps 770 mmHg 45%
    11:00 +26°C° 0 mm 3 mps 770 mmHg 41%
    12:00 +27°C° 0 mm 3 mps 769 mmHg 36%
    13:00 +28°C° 0 mm 3 mps 769 mmHg 32%
    14:00 +28°C° 0 mm 3 mps 769 mmHg 34%
    15:00 +28°C° 0 mm 3 mps 768 mmHg 35%
    16:00 +27°C° 0 mm 3 mps 768 mmHg 36%
    17:00 +26°C° 0 mm 3 mps 767 mmHg 42%
    18:00 +24°C° 0 mm 2 mps 767 mmHg 48%
    19:00 +21°C° 0 mm 2 mps 767 mmHg 54%
    20:00 +21°C° 0 mm 2 mps 767 mmHg 58%
    21:00 +21°C° 0 mm 1 mps 767 mmHg 62%
    22:00 +21°C° 0 mm 1 mps 766 mmHg 65%
    23:00 +21°C° 0 mm 1 mps 766 mmHg 67%

    Day after tomorrow, 28 September, Friday

    Time Temperature Precipitation Wind Pressure Humidity
    00:00 +20°C° 0 mm 1 mps 765 mmHg 68%
    01:00 +20°C° 0 mm 1 mps 765 mmHg 69%
    02:00 +20°C° 0 mm 1 mps 764 mmHg 69%
    03:00 +19°C° 0 mm 1 mps 764 mmHg 68%
    04:00 +18°C° 0 mm 2 mps 763 mmHg 67%
    05:00 +18°C° 0 mm 2 mps 763 mmHg 65%
    06:00 +18°C° 0 mm 2 mps 763 mmHg 63%
    07:00 +18°C° 0 mm 2 mps 763 mmHg 60%
    08:00 +21°C° 0 mm 2 mps 763 mmHg 52%
    09:00 +24°C° 0 mm 2 mps 763 mmHg 43%
    10:00 +27°C° 0 mm 1 mps 763 mmHg 34%
    11:00 +28°C° 0 mm 2 mps 762 mmHg 32%
    12:00 +29°C° 0 mm 2 mps 762 mmHg 30%
    13:00 +30°C° 0 mm 2 mps 762 mmHg 27%
    14:00 +30°C° 0 mm 3 mps 761 mmHg 31%
    15:00 +29°C° 0 mm 3 mps 761 mmHg 34%
    16:00 +29°C° 0 mm 4 mps 760 mmHg 37%
    17:00 +27°C° 0 mm 4 mps 760 mmHg 46%
    18:00 +25°C° 0 mm 3 mps 760 mmHg 55%
    19:00 +22°C° 0 mm 3 mps 760 mmHg 63%
    20:00 +21°C° 0 mm 3 mps 760 mmHg 66%
    21:00 +21°C° 0 mm 3 mps 760 mmHg 69%
    22:00 +20°C° 0 mm 3 mps 760 mmHg 73%
    23:00 +20°C° 0 mm 3 mps 760 mmHg 74%

    29 September, Saturday

    Time Temperature Precipitation Wind Pressure Humidity
    00:00 +20°C° 0 mm 3 mps 760 mmHg 76%
    01:00 +19°C° 0 mm 3 mps 760 mmHg 78%
    02:00 +19°C° 0 mm 3 mps 759 mmHg 78%
    03:00 +19°C° 0 mm 3 mps 759 mmHg 79%
    04:00 +19°C° 0 mm 3 mps 759 mmHg 80%
    05:00 +19°C° 0 mm 3 mps 759 mmHg 79%
    06:00 +19°C° 0 mm 3 mps 759 mmHg 77%
    07:00 +19°C° 0 mm 3 mps 759 mmHg 75%
    08:00 +21°C° 0 mm 3 mps 759 mmHg 65%
    09:00 +25°C° 0 mm 3 mps 759 mmHg 55%
    10:00 +27°C° 0 mm 3 mps 759 mmHg 44%
    11:00 +28°C° 0 mm 3 mps 759 mmHg 42%
    12:00 +29°C° 0 mm 3 mps 759 mmHg 39%
    13:00 +30°C° 0 mm 3 mps 759 mmHg 36%
    14:00 +30°C° 0 mm 4 mps 758 mmHg 40%
    15:00 +30°C° 0 mm 5 mps 758 mmHg 44%
    16:00 +29°C° 0 mm 5 mps 758 mmHg 48%
    17:00 +28°C° 0 mm 5 mps 758 mmHg 58%
    18:00 +26°C° 0 mm 5 mps 758 mmHg 68%
    19:00 +25°C° 0 mm 5 mps 758 mmHg 78%
    20:00 +23°C° 0 mm 5 mps 758 mmHg 82%
    21:00 +23°C° 0 mm 4 mps 758 mmHg 86%
    22:00 +22°C° 0 mm 4 mps 759 mmHg 90%
    23:00 +22°C° 0 mm 4 mps 758 mmHg 90%

    30 September, Sunday

    Time Temperature Precipitation Wind Pressure Humidity
    00:00 +21°C° 0 mm 4 mps 758 mmHg 91%
    01:00 +21°C° 0 mm 4 mps 758 mmHg 92%
    02:00 +21°C° 0 mm 4 mps 758 mmHg 92%
    03:00 +21°C° 0 mm 4 mps 758 mmHg 92%
    04:00 +20°C° 0 mm 4 mps 758 mmHg 92%
    05:00 +20°C° 0 mm 4 mps 758 mmHg 90%
    06:00 +20°C° 0 mm 4 mps 758 mmHg 89%
    07:00 +20°C° 0 mm 3 mps 758 mmHg 88%
    08:00 +22°C° 0 mm 3 mps 758 mmHg 77%
    09:00 +26°C° 0 mm 3 mps 758 mmHg 66%
    10:00 +28°C° 0 mm 3 mps 759 mmHg 55%
    11:00 +29°C° 0 mm 3 mps 759 mmHg 50%
    12:00 +30°C° 0 mm 3 mps 759 mmHg 46%
    13:00 +31°C° 0 mm 2 mps 759 mmHg 41%
    14:00 +30°C° 0 mm 3 mps 758 mmHg 44%
    15:00 +29°C° 0 mm 3 mps 758 mmHg 47%
    16:00 +29°C° 0 mm 4 mps 758 mmHg 50%
    17:00 +27°C° 0 mm 3 mps 758 mmHg 58%
    18:00 +25°C° 0 mm 3 mps 759 mmHg 66%
    19:00 +24°C° 0 mm 3 mps 759 mmHg 73%
    20:00 +22°C° 0 mm 3 mps 759 mmHg 76%
    21:00 +23°C° 0 mm 2 mps 759 mmHg 79%
    22:00 +21°C° 0 mm 2 mps 759 mmHg 83%
    23:00 +21°C° 0 mm 2 mps 759 mmHg 84%

    1 October, Monday

    Time Temperature Precipitation Wind Pressure Humidity
    00:00 +22°C° 0 mm 1 mps 759 mmHg 85%
    01:00 +21°C° 0 mm 1 mps 759 mmHg 87%
    02:00 +21°C° 0 mm 1 mps 759 mmHg 87%
    03:00 +21°C° 0 mm 1 mps 759 mmHg 88%
    04:00 +19°C° 0 mm 0 mps 758 mmHg 89%
    05:00 +21°C° 0 mm 1 mps 758 mmHg 88%
    06:00 +21°C° 0 mm 1 mps 759 mmHg 87%
    07:00 +21°C° 0 mm 1 mps 759 mmHg 86%
    08:00 +23°C° 0 mm 1 mps 759 mmHg 77%
    09:00 +25°C° 0 mm 1 mps 759 mmHg 68%
    10:00 +27°C° 0 mm 1 mps 759 mmHg 58%
    11:00 +28°C° 0 mm 2 mps 759 mmHg 54%
    12:00 +29°C° 0 mm 2 mps 759 mmHg 50%
    13:00 +30°C° 0 mm 3 mps 759 mmHg 46%
    14:00 +29°C° 0 mm 3 mps 759 mmHg 48%
    15:00 +29°C° 0 mm 3 mps 759 mmHg 50%
    16:00 +28°C° 0 mm 3 mps 759 mmHg 52%
    17:00 +27°C° 0 mm 3 mps 759 mmHg 59%
    18:00 +25°C° 0 mm 2 mps 759 mmHg 67%
    19:00 +24°C° 0 mm 2 mps 760 mmHg 74%
    20:00 +23°C° 0 mm 2 mps 760 mmHg 77%
    21:00 +23°C° 0 mm 2 mps 760 mmHg 80%
    22:00 +21°C° 0 mm 2 mps 760 mmHg 82%
    23:00 +21°C° 0 mm 2 mps 760 mmHg 83%
    Show more